When you browse on this site, cookies collect data to enhance your experience and personalize the content and advertising you see.
Visit our Privacy Policy to learn more. By continuing to use the site, you agree to this use of cookies and data.
  • In Österreich
  • Länderverzeichnis
  • Für 7 Tage
  • Wassertemperatur
  • Wetterkarte
  • News
  • Widgets
  • user-avatar
    Anmelden

    Stündliche Wetter Udong

    Heute, 3 Juni, Mittwoch

    Zeit Temperatur Niederschläge Wind Luftdruck Luftfeuchtigkeit
    00:00 +28°C° 0 mm 2 m/S 755 mmHg 83%
    01:00 +28°C° 0 mm 2 m/S 755 mmHg 84%
    02:00 +28°C° 0.5 mm 2 m/S 755 mmHg 85%
    03:00 +28°C° 0.5 mm 1 m/S 754 mmHg 85%
    04:00 +27°C° 0.5 mm 1 m/S 754 mmHg 86%
    05:00 +28°C° 0 mm 1 m/S 754 mmHg 84%
    06:00 +28°C° 0 mm 1 m/S 754 mmHg 82%
    07:00 +29°C° 0 mm 1 m/S 755 mmHg 78%
    08:00 +31°C° 0 mm 1 m/S 755 mmHg 72%
    09:00 +32°C° 0 mm 2 m/S 755 mmHg 66%
    10:00 +34°C° 0 mm 2 m/S 755 mmHg 60%
    11:00 +35°C° 0 mm 3 m/S 755 mmHg 58%
    12:00 +36°C° 0 mm 3 m/S 754 mmHg 56%
    13:00 +37°C° 0 mm 3 m/S 754 mmHg 51%
    14:00 +37°C° 0 mm 3 m/S 753 mmHg 51%
    15:00 +36°C° 0 mm 3 m/S 753 mmHg 52%
    16:00 +36°C° 0 mm 3 m/S 752 mmHg 52%
    17:00 +35°C° 0.1 mm 3 m/S 752 mmHg 57%
    18:00 +34°C° 0.1 mm 3 m/S 753 mmHg 63%
    19:00 +31°C° 0.1 mm 2 m/S 753 mmHg 69%
    20:00 +31°C° 0 mm 3 m/S 754 mmHg 72%
    21:00 +30°C° 0 mm 3 m/S 754 mmHg 75%
    22:00 +30°C° 0 mm 3 m/S 755 mmHg 79%
    23:00 +29°C° 0 mm 3 m/S 754 mmHg 80%

    Morgen, 4 Juni, Donnerstag

    Zeit Temperatur Niederschläge Wind Luftdruck Luftfeuchtigkeit
    00:00 +29°C° 0 mm 3 m/S 754 mmHg 81%
    01:00 +29°C° 0 mm 2 m/S 754 mmHg 83%
    02:00 +29°C° 0 mm 2 m/S 754 mmHg 84%
    03:00 +28°C° 0 mm 2 m/S 753 mmHg 85%
    04:00 +28°C° 0 mm 2 m/S 753 mmHg 86%
    05:00 +28°C° 0 mm 2 m/S 754 mmHg 84%
    06:00 +29°C° 0 mm 2 m/S 754 mmHg 83%
    07:00 +29°C° 0 mm 2 m/S 754 mmHg 81%
    08:00 +31°C° 0 mm 2 m/S 755 mmHg 74%
    09:00 +34°C° 0 mm 3 m/S 755 mmHg 66%
    10:00 +35°C° 0 mm 3 m/S 755 mmHg 58%
    11:00 +36°C° 0 mm 3 m/S 754 mmHg 54%
    12:00 +37°C° 0 mm 3 m/S 754 mmHg 51%
    13:00 +38°C° 0 mm 4 m/S 753 mmHg 47%
    14:00 +38°C° 0 mm 4 m/S 753 mmHg 48%
    15:00 +38°C° 0 mm 4 m/S 752 mmHg 50%
    16:00 +37°C° 0 mm 5 m/S 752 mmHg 51%
    17:00 +36°C° 0.1 mm 4 m/S 752 mmHg 58%
    18:00 +34°C° 0.1 mm 4 m/S 752 mmHg 64%
    19:00 +32°C° 0.1 mm 4 m/S 753 mmHg 71%
    20:00 +32°C° 0 mm 4 m/S 753 mmHg 72%
    21:00 +30°C° 0 mm 4 m/S 754 mmHg 74%
    22:00 +30°C° 0 mm 3 m/S 754 mmHg 76%
    23:00 +30°C° 0 mm 3 m/S 754 mmHg 77%

    übermorgen, 5 Juni, Freitag

    Zeit Temperatur Niederschläge Wind Luftdruck Luftfeuchtigkeit
    00:00 +29°C° 0 mm 3 m/S 754 mmHg 78%
    01:00 +29°C° 0 mm 3 m/S 754 mmHg 79%
    02:00 +29°C° 0 mm 3 m/S 753 mmHg 80%
    03:00 +29°C° 0 mm 3 m/S 753 mmHg 82%
    04:00 +28°C° 0 mm 3 m/S 753 mmHg 83%
    05:00 +29°C° 0 mm 3 m/S 753 mmHg 82%
    06:00 +29°C° 0 mm 3 m/S 754 mmHg 80%
    07:00 +30°C° 0 mm 3 m/S 754 mmHg 79%
    08:00 +31°C° 0 mm 3 m/S 754 mmHg 71%
    09:00 +34°C° 0 mm 4 m/S 755 mmHg 64%
    10:00 +36°C° 0 mm 4 m/S 755 mmHg 57%
    11:00 +36°C° 0 mm 4 m/S 754 mmHg 53%
    12:00 +37°C° 0 mm 4 m/S 753 mmHg 50%
    13:00 +38°C° 0 mm 3 m/S 753 mmHg 47%
    14:00 +38°C° 0.1 mm 4 m/S 753 mmHg 49%
    15:00 +37°C° 0.1 mm 4 m/S 752 mmHg 52%
    16:00 +37°C° 0.1 mm 4 m/S 752 mmHg 54%
    17:00 +35°C° 0.4 mm 4 m/S 752 mmHg 60%
    18:00 +34°C° 0.4 mm 4 m/S 753 mmHg 67%
    19:00 +31°C° 0.4 mm 3 m/S 753 mmHg 73%
    20:00 +31°C° 0 mm 3 m/S 753 mmHg 74%
    21:00 +30°C° 0 mm 3 m/S 753 mmHg 76%
    22:00 +30°C° 0 mm 4 m/S 754 mmHg 77%
    23:00 +29°C° 0 mm 3 m/S 754 mmHg 78%

    6 Juni, Samstag

    Zeit Temperatur Niederschläge Wind Luftdruck Luftfeuchtigkeit
    00:00 +29°C° 0 mm 3 m/S 753 mmHg 79%
    01:00 +29°C° 0 mm 3 m/S 753 mmHg 80%
    02:00 +28°C° 0 mm 3 m/S 753 mmHg 81%
    03:00 +28°C° 0 mm 3 m/S 753 mmHg 82%
    04:00 +28°C° 0 mm 3 m/S 752 mmHg 83%
    05:00 +28°C° 0 mm 3 m/S 753 mmHg 81%
    06:00 +29°C° 0 mm 3 m/S 753 mmHg 80%
    07:00 +29°C° 0 mm 4 m/S 754 mmHg 78%
    08:00 +32°C° 0 mm 4 m/S 754 mmHg 72%
    09:00 +34°C° 0 mm 4 m/S 754 mmHg 65%
    10:00 +35°C° 0 mm 4 m/S 754 mmHg 58%
    11:00 +36°C° 0 mm 4 m/S 754 mmHg 55%
    12:00 +37°C° 0 mm 4 m/S 753 mmHg 53%
    13:00 +38°C° 0 mm 4 m/S 753 mmHg 50%
    14:00 +37°C° 0.2 mm 4 m/S 752 mmHg 52%
    15:00 +37°C° 0.2 mm 5 m/S 752 mmHg 54%
    16:00 +36°C° 0.2 mm 5 m/S 751 mmHg 56%
    17:00 +35°C° 0 mm 5 m/S 752 mmHg 61%
    18:00 +33°C° 0 mm 4 m/S 752 mmHg 66%
    19:00 +32°C° 0 mm 4 m/S 753 mmHg 71%
    20:00 +30°C° 0 mm 4 m/S 753 mmHg 72%
    21:00 +30°C° 0 mm 4 m/S 754 mmHg 74%
    22:00 +29°C° 0 mm 4 m/S 754 mmHg 75%
    23:00 +29°C° 0 mm 4 m/S 754 mmHg 76%

    7 Juni, Sonntag

    Zeit Temperatur Niederschläge Wind Luftdruck Luftfeuchtigkeit
    00:00 +29°C° 0 mm 4 m/S 754 mmHg 77%
    01:00 +29°C° 0 mm 4 m/S 753 mmHg 79%
    02:00 +28°C° 0 mm 4 m/S 753 mmHg 80%
    03:00 +28°C° 0 mm 3 m/S 753 mmHg 81%
    04:00 +28°C° 0 mm 3 m/S 753 mmHg 82%
    05:00 +28°C° 0 mm 3 m/S 753 mmHg 81%
    06:00 +29°C° 0 mm 3 m/S 753 mmHg 81%
    07:00 +29°C° 0 mm 3 m/S 754 mmHg 80%
    08:00 +31°C° 0 mm 3 m/S 754 mmHg 73%
    09:00 +33°C° 0 mm 4 m/S 754 mmHg 66%
    10:00 +35°C° 0 mm 4 m/S 754 mmHg 59%
    11:00 +36°C° 0 mm 4 m/S 753 mmHg 56%
    12:00 +37°C° 0 mm 4 m/S 753 mmHg 53%
    13:00 +37°C° 0 mm 4 m/S 752 mmHg 50%
    14:00 +37°C° 0.2 mm 4 m/S 752 mmHg 52%
    15:00 +37°C° 0.2 mm 5 m/S 751 mmHg 55%
    16:00 +36°C° 0.2 mm 6 m/S 751 mmHg 57%
    17:00 +35°C° 0.2 mm 5 m/S 751 mmHg 62%
    18:00 +33°C° 0.2 mm 5 m/S 752 mmHg 67%
    19:00 +32°C° 0.2 mm 4 m/S 752 mmHg 72%
    20:00 +30°C° 0 mm 4 m/S 753 mmHg 73%
    21:00 +30°C° 0 mm 4 m/S 753 mmHg 74%
    22:00 +29°C° 0 mm 4 m/S 754 mmHg 75%
    23:00 +29°C° 0 mm 4 m/S 754 mmHg 77%

    8 Juni, Montag

    Zeit Temperatur Niederschläge Wind Luftdruck Luftfeuchtigkeit
    00:00 +29°C° 0 mm 3 m/S 753 mmHg 79%
    01:00 +28°C° 0 mm 3 m/S 753 mmHg 81%
    02:00 +28°C° 0 mm 3 m/S 753 mmHg 82%
    03:00 +28°C° 0 mm 3 m/S 752 mmHg 83%
    04:00 +28°C° 0 mm 3 m/S 752 mmHg 85%
    05:00 +28°C° 0 mm 3 m/S 753 mmHg 83%
    06:00 +29°C° 0 mm 4 m/S 753 mmHg 81%
    07:00 +29°C° 0 mm 4 m/S 753 mmHg 79%
    08:00 +32°C° 0 mm 4 m/S 754 mmHg 73%
    09:00 +33°C° 0 mm 4 m/S 754 mmHg 67%
    10:00 +35°C° 0 mm 4 m/S 754 mmHg 60%
    11:00 +36°C° 0 mm 4 m/S 753 mmHg 58%
    12:00 +36°C° 0 mm 4 m/S 753 mmHg 55%
    13:00 +37°C° 0 mm 4 m/S 752 mmHg 52%
    14:00 +37°C° 0.1 mm 5 m/S 752 mmHg 53%
    15:00 +36°C° 0.1 mm 5 m/S 752 mmHg 54%
    16:00 +36°C° 0.1 mm 6 m/S 751 mmHg 55%
    17:00 +35°C° 0 mm 5 m/S 751 mmHg 59%
    18:00 +33°C° 0 mm 4 m/S 752 mmHg 64%
    19:00 +32°C° 0 mm 4 m/S 752 mmHg 68%
    20:00 +30°C° 0 mm 3 m/S 752 mmHg 70%
    21:00 +30°C° 0 mm 3 m/S 753 mmHg 72%
    22:00 +29°C° 0 mm 3 m/S 753 mmHg 73%
    23:00 +29°C° 0 mm 3 m/S 753 mmHg 75%
    Mehr zeigen